www.pogodaiklimat.ru

Погода и климат >> Архив погоды >> Россия >> Архангельская область >> Вилегодское


ПОГОДА в Вилегодском

  • Прогноз погоды в Вилегодском
  • Монитор погоды в Вилегодском

АРХИВ ПОГОДЫ в Вилегодском

Время (UTC), дата Ветер
(напр.,м/с)
 
Видим.   Явления Облачность Т
(С)
Тd
(С)
f
(%)
Тe
(С)
Тes
(С)
Комфортность P
(гПа)
Po
(гПа)
Тmin
(С)
Tmax
(С)
R
(мм)
R24
(мм)
S
(см)
12 12.07 З 2 20 км {ливн. осадки} 10/10 450 м
[Cu Sc]
+14.0 +11.2 83 +13 +13 1006.8 998.6
15 12.07 ЮЗ 1 20 км 9/9 570 м
[Cu Sc]
+14.5 +11.0 80 +15 +15 1007.9 999.7 +15.8 2
18 12.07 Ю 1 20 км 9/8 660 м
[Sc Ac As]
+11.8 +10.2 90 +12 +12 1009.4 1001.1
21 12.07 штиль 0 н/о н/о +6.8 +6.4 97 +6 +6 1010.3 1001.8
00 13.07 СВ 1 н/о н/о +5.9 +5.7 99 +5 +5 1010.5 1002.0
03 13.07 В 1 200 м туман ?/? +7.1 +6.8 98 +6 +6 1010.1 1001.7 +5.7
06 13.07 СВ 1 20 км {туман} 8/4 300 м
[Cu med, cong Ac trans]
+16.1 +9.7 66 +17 +21 1008.6 1000.5
09 13.07 З 1 н/о н/о +17.7 +9.6 59 +19 +19 1007.4 999.3
12 13.07 З 2 20 км 8/8 540 м
[Cu med, cong]
+19.8 +10.3 54 +22 +23 комфорт 1007.3 999.3
15 13.07 З 3 20 км 8/3 300 м
[Sc diur, vesp Ac cast]
+19.1 +8.4 50 +20 +21 1007.8 999.7 +20.6
18 13.07 З 1 20 км 4/0
[Ac trans]
+13.4 +11.1 86 +14 +14 1009.0 1000.7
21 13.07 ЮЗ 1 н/о н/о +7.9 +7.6 98 +7 +7 1009.6 1001.2
00 14.07 штиль 0 н/о н/о +5.6 +5.4 99 +4 +4 1010.5 1002.0
03 14.07 В 1 10 км 1/0
[Ac trans]
+10.0 +9.4 96 +9 +12 1010.6 1002.2 +5.2
06 14.07 В 1 20 км 6/0
[Ci fib]
+19.3 +11.6 61 +22 +31 комфорт 1009.6 1001.5
09 14.07 З 1 н/о н/о +20.5 +10.3 52 +23 +23 комфорт 1009.4 1001.4
12 14.07 ЮЗ 1 20 км 8/4 600 м
[Sc diur, vesp Ci fib]
+22.4 +9.3 43 +24 +29 комфорт 1008.9 1000.9
15 14.07 З 3 20 км 6/3 600 м
[Sc diur, vesp Ac As]
+19.5 +10.8 57 +21 +22 комфорт 1009.5 1001.5 +22.4
18 14.07 З 1 20 км 3/3 600 м
[Sc diur, vesp]
+12.9 +11.0 88 +13 +13 1010.3 1002.0
21 14.07 штиль 0 н/о н/о +9.3 +8.9 97 +8 +8 1010.9 1002.5
00 15.07 З 1 н/о н/о +10.3 +10.0 98 +10 +10 1010.9 1002.6
03 15.07 штиль 0 20 км 9/4 600 м
[Sc Ac As]
+14.6 +12.4 87 +14 +15 1011.0 1002.8 +9.1
06 15.07 штиль 0 20 км 9/5 600 м
[Sc Ac As]
+17.8 +13.4 75 +18 +21 1010.5 1002.4
09 15.07 В 1 н/о н/о +22.2 +10.9 49 +24 +24 комфорт 1009.2 1001.2
12 15.07 СЗ 3 20 км 9/9 750 м
[Cu Sc Ci fib]
+22.0 +13.1 57 +25 +25 комфорт 1008.3 1000.3
15 15.07 СЗ 2 20 км 9/4 600 м
[Cu Sc Ac cuf Ci]
+21.7 +12.0 54 +24 +25 комфорт 1007.8 999.8 +23.1
18 15.07 З 2 20 км в посл. час ливневой дождь 10/8 540 м
[Cu Sc Ac und]
+14.9 +13.5 91 +15 +15 1008.0 999.8
21 15.07 З 2 н/о н/о +13.7 +13.0 96 +13 +13 1006.5 998.3
00 16.07 З 3 н/о н/о +12.1 +11.5 96 +10 +10 1006.1 997.9
03 16.07 З 3 10 км 9/9 480 м
[Sc]
+12.7 +11.5 92 +11 +11 1006.8 998.5 +11.1 3
06 16.07 З 4 20 км 8/3 300 м
[Cu hum Ac lent Ci fib]
+17.2 +13.4 78 +17 +20 1006.0 997.9
09 16.07 З 6-10
{11}
н/о н/о +21.1 +12.0 56 +23 +23 комфорт 1006.6 998.6
12 16.07 З 5
{11}
20 км 6/6 570 м
[Cu med, cong]
+22.2 +10.6 48 +24 +26 комфорт 1007.9 1000.0
15 16.07 З 4
{10}
20 км 4/1 600 м
[Sc Cs]
+20.8 +8.4 45 +22 +23 комфорт 1009.6 1001.6 +22.2
18 16.07 З 1 20 км 3/0
[Ac lent Ci fib]
+14.0 +10.5 79 +14 +14 1011.1 1002.8
21 16.07 З 1 н/о н/о +7.9 +7.4 97 +7 +7 1013.3 1004.8
00 17.07 штиль 0 н/о н/о +5.6 +5.3 98 +4 +4 1014.7 1006.2
03 17.07 З 1 20 км ясно +11.5 +9.8 89 +11 +14 1015.7 1007.4 +5.4
06 17.07 штиль 0 20 км 1/0
[Ci fib]
+20.7 +10.0 50 +22 +34 комфорт 1015.8 1007.7
09 17.07 ЮЗ 2 н/о н/о +22.8 +8.1 39 +24 +24 комфорт 1015.7 1007.7
12 17.07 З 2 20 км 3/3
[Cu med, cong Ci fib]
+24.3 +7.8 35 +25 +31 комфорт 1015.2 1007.2
15 17.07 штиль 0 20 км 6/3 600 м
[Sc diur, vesp Ci fib]
+23.4 +8.8 39 +25 +26 комфорт 1014.8 1006.8 +24.7
18 17.07 ЮВ 1 20 км 8/1 600 м
[Sc diur, vesp Ci fib]
+14.4 +12.1 86 +15 +15 1015.4 1007.2
21 17.07 Ю 1 н/о н/о +8.9 +8.6 98 +8 +8 1016.1 1007.7
00 18.07 штиль 0 н/о н/о +6.1 +5.9 99 +5 +5 1015.9 1007.4
03 18.07 штиль 0 20 км 3/0
[Cc]
+11.4 +10.0 91 +11 +14 1015.8 1007.4 +5.6
06 18.07 В 5 50 км 1/0
[Cc]
+20.2 +9.8 51 +21 +26 комфорт 1015.2 1007.1
09 18.07 В 4 н/о н/о +21.6 +8.9 44 +23 +23 комфорт 1014.2 1006.1
12 18.07 СВ 3 20 км ясно +23.1 +9.2 41 +25 +31 комфорт 1013.0 1005.0
15 18.07 СВ 3 20 км 1/0
[Ci fib]
+22.2 +6.0 35 +23 +24 комфорт 1012.1 1004.1 +23.1
18 18.07 ЮВ 1 20 км ясно +13.7 +9.7 77 +14 +14 1012.2 1003.9
21 18.07 штиль 0 н/о н/о +6.9 +6.4 97 +6 +6 1012.5 1004.0
00 19.07 штиль 0 н/о н/о +4.5 +4.3 99 +3 +3 1012.2 1003.7
03 19.07 штиль 0 20 км ясно +9.4 +8.7 95 +9 +12 1011.5 1003.2 +3.8
06 19.07 В 1 50 км 1/0
[Ac cast]
+20.8 +11.0 53 +24 +34 комфорт 1010.1 1002.1
09 19.07 ЮВ 1 н/о н/о +23.4 +5.8 32 +24 +24 комфорт 1008.7 1000.7

 

Местоположение метеостанции Вилегодское (Архангельская область, Россия): широта 61.12 долгота 47.97 высота над уровнем моря 70 м.

В архиве по умолчанию представлена погода в Вилегодском за последнюю неделю. Архивные данные за месяц целиком и за предыдущие месяцы, начиная с января 2011 года, Вы можете получить, выбрав интересующий диапазон дат из раскрывающегося списка и нажав кнопку "Ввод!".


*Определитесь, кто Вы:
робот инопланетянин человек

Внимание! Время в таблицах - всемирное. Для получения местного времени необходимо прибавить поправку, которая равна 3 ч.

Смотрите также архив погоды в соседних городах и на ближайших метеорологических станциях:

Погода в Лальске (Кировская область, Россия) (51 км)
Погода в Котласе (Архангельская область, Россия) (68 км)
Погода в Слободчиково (Архангельская область, Россия) (72 км)
Погода в Великом Устюге (Вологодская область, Россия) (98 км)
Погода в Красноборске (Архангельская область, Россия) (119 км)
Погода в Объячеве (Коми, Россия) (124 км)
Погода в Пустоши (Коми, Россия) (124 км)
Погода в Яренске (Архангельская область, Россия) (132 км)
Погода в Опарино (Кировская область, Россия) (142 км)
Погода в Сыктывкаре (Коми, Россия) (162 км)

Пояснения к столбцам:

Ветер - указаны скорость ветра в м/с - средняя за 10 мин, порывы в срок и между сроками (в фигурных скобках) и направление, откуда дует ветер: С - северный, СВ - северо-восточный, В - восточный, ЮВ - юго-восточный, Ю - южный, ЮЗ - юго-западный, З - западный, СЗ - северо-западный.
Видимость - горизонтальная дальность видимости в метрах или километрах. При видимости от 1 до 10 км при отсутствии осадков обычно наблюдается дымка, при ухудшении видимости до 1 км и менее - туман. В сухую погоду видимость может ухудшаться дымом, пылью или мглою.
Явления - указаны атмосферные явления, наблюдавшиеся в срок или в последний час перед сроком; фигурными скобками обозначены явления, наблюдавшиеся между сроками (за 1-3 часа до срока); квадратными скобками обозначены град или гололедные отложения с указанием их диаметра в мм.
Облачность - указаны через наклонную черту общая и нижняя облачность в баллах и высота нижней границы облаков в метрах; квадратными скобками обозначены формы облаков: Ci - перистые, Cs - перисто-слоистые, Cc - перисто-кучевые, Ac - высококучевые, As - высокослоистые, Sc - слоисто-кучевые, Ns - слоисто-дождевые, Cu - кучевые, Cb - кучево-дождевые. Подробнее классификацию облаков см. в Атласе облаков (PDF).
T - Температура воздуха - температура, измеренная на высоте 2 м над землей.
Td - Температура точки росы - температура, при понижении до которой содержащийся в воздухе водяной пар достигнет насыщения.
f - Относительная влажность воздуха - влажноcть воздуха, измеренная на высоте 2 м над землей.
Te - Эффективная температура - температура, которую ощущает одетый по сезону человек в тени. Характеристика душности погоды. При расчете учитывается влияние влажности воздуха и скорости ветра на теплоощущения человека.
Tes - Эффективная температура на солнце - температура, которую ощущает человек, с поправкой на солнечный нагрев. Характеристика знойности погоды. Зависит от высоты солнца над горизонтом, облачности и скорости ветра. Ночью, в пасмурную погоду, а также при ветре 12 м/с и более поправка равна нулю.
P - Атмосферное давление - приведенное к уровню моря атмосферное давление.
Po - Атмосферное давление - измеренное на уровне метеостанции атмосферное давление.
Tmin - Минимальная температура - минимум температуры воздуха на высоте 2 м над землей.
Tmax - Максимальная температура - максимум температуры воздуха на высоте 2 м над землей.
R - Количество осадков - Количество выпавших осадков за период времени, мм. При наведении курсора мыши на число - период времени, за который выпало указанное количество осадков.
R24 - Количество осадков - Количество выпавших осадков за 24 часа, мм.
S - Снежный покров - Высота снежного покрова, см. При наведении курсора мыши на число - состояние снежного покрова и степень покрытия местности в баллах.